Weather History for Monroe, MI

Change the Weather History Date:

Thursday, November 24, 2011

  Actual Average Record
Temperature  
Mean Temperature 40 °F -  
Max Temperature 44 °F 44 °F 68 °F (1931)
Min Temperature 35 °F 29 °F 3 °F (1950)
Degree Days  
Heating Degree Days 26    
Moisture  
Dew Point 41 °F    
Average Humidity 100    
Maximum Humidity 100    
Minimum Humidity 100    
Precipitation  
Precipitation 0.00 in - - ()
Sea Level Pressure  
Sea Level Pressure 30.20 in    
Wind  
Wind Speed 11 mph (SW)    
Max Wind Speed 21 mph    
Max Gust Speed 25 mph    
Visibility 4 miles    
Events      
Averages and records for this station are not official NWS values.
T = Trace of Precipitation, MM = Missing Value Source: NWS Daily Summary

Daily Weather History Graph

Daily Weather History Graph

Search for Another Location

Airport:

Trip Planner

Search our weather history database for the weather conditions in past years. The results will help you decide how hot, cold, wet, or windy it might be!

Date:

Astronomy

Nov. 24, 2011 Rise Set
Actual Time 7:33 AM EST 5:06 PM EST
Civil Twilight 7:03 AM EST 5:37 PM EST
Nautical Twilight 6:29 AM EST 6:11 PM EST
Astronomical Twilight 5:55 AM EST 6:44 PM EST
Moon 6:50 AM EST (11/24) 4:35 PM EST (11/24)
Length of Visible Light 10h 33m
Length of Day
9h 32m
Waning Crescent, 0% of the Moon is Illuminated
Nov 24
Waning Crescent
Nov 25
New
Dec 2
First Quarter
Dec 10
Full
Dec 17
Last Quarter

Hourly Weather History & Observations

Time (EST) Temp. Windchill Dew Point Humidity Pressure Visibility Wind Dir Wind Speed Gust Speed Precip Events Conditions
12:10 AM 37.4 °F 32.1 °F 37.4 °F 100% 30.20 in 4.0 mi SW 6.9 mph - N/A   Clear
12:30 AM 37.4 °F 31.4 °F 37.4 °F 100% 30.19 in 4.0 mi WSW 8.1 mph - N/A   Clear
12:51 AM 37.4 °F 30.8 °F 37.4 °F 100% 30.19 in 3.0 mi WSW 9.2 mph - N/A   Clear
1:11 AM 39.2 °F 33.0 °F 39.2 °F 100% 30.19 in 3.0 mi WSW 9.2 mph - N/A   Clear
1:51 AM 37.4 °F 30.8 °F 37.4 °F 100% 30.18 in 2.5 mi WSW 9.2 mph - N/A   Scattered Clouds
2:11 AM 37.4 °F 30.8 °F 37.4 °F 100% 30.19 in 2.5 mi WSW 9.2 mph - N/A   Clear
3:52 AM 35.6 °F 30.7 °F 35.6 °F 100% 30.19 in 2.0 mi WSW 5.8 mph - N/A   Clear
4:13 AM 35.6 °F 29.9 °F 35.6 °F 100% 30.20 in 2.0 mi WSW 6.9 mph - N/A   Clear
4:33 AM 37.4 °F 31.4 °F 37.4 °F 100% 30.20 in 2.0 mi WSW 8.1 mph - N/A   Mostly Cloudy
4:53 AM 37.4 °F 30.8 °F 37.4 °F 100% 30.20 in 1.8 mi WSW 9.2 mph - N/A   Overcast
5:13 AM 37.4 °F 30.8 °F 37.4 °F 100% 30.20 in 2.0 mi WSW 9.2 mph - N/A   Overcast
5:33 AM 37.4 °F 30.3 °F 37.4 °F 100% 30.19 in 2.0 mi WSW 10.4 mph - N/A   Overcast
6:14 AM 39.2 °F 32.5 °F 39.2 °F 100% 30.20 in 2.0 mi WSW 10.4 mph - N/A   Overcast
6:54 AM 39.2 °F 33.0 °F 39.2 °F 100% 30.21 in 2.0 mi WSW 9.2 mph - N/A   Overcast
7:14 AM 39.2 °F 31.6 °F 39.2 °F 100% 30.21 in 2.5 mi WSW 12.7 mph - N/A   Overcast
7:35 AM 39.2 °F 32.5 °F 39.2 °F 100% 30.21 in 2.5 mi SW 10.4 mph - N/A   Overcast
7:55 AM 39.2 °F 30.8 °F 39.2 °F 100% 30.21 in 2.0 mi SW 15.0 mph - N/A   Overcast
8:15 AM 39.2 °F 31.2 °F 39.2 °F 100% 30.22 in 2.0 mi WSW 13.8 mph - N/A   Overcast
8:35 AM 39.2 °F 32.5 °F 39.2 °F 100% 30.23 in 2.0 mi WSW 10.4 mph - N/A   Overcast
8:55 AM 39.2 °F 32.5 °F 39.2 °F 100% 30.23 in 2.0 mi WSW 10.4 mph 19.6 mph N/A   Overcast
9:31 AM 39.2 °F 32.5 °F 39.2 °F 100% 30.24 in 2.0 mi WSW 10.4 mph - N/A   Overcast
9:51 AM 39.2 °F 31.6 °F 39.2 °F 100% 30.24 in 2.5 mi WSW 12.7 mph - N/A   Overcast
10:11 AM 39.2 °F 30.2 °F 39.2 °F 100% 30.24 in 3.0 mi WSW 17.3 mph 24.2 mph N/A   Overcast
10:31 AM 39.2 °F 29.6 °F 39.2 °F 100% 30.25 in 3.0 mi WSW 19.6 mph 23.0 mph N/A   Overcast
11:11 AM 41.0 °F 33.9 °F 41.0 °F 100% 30.25 in 3.0 mi WSW 12.7 mph - N/A   Overcast
11:32 AM 39.2 °F 30.8 °F 39.2 °F 100% 30.25 in 2.5 mi SW 15.0 mph 18.4 mph N/A   Overcast
11:52 AM 39.2 °F 31.6 °F 39.2 °F 100% 30.24 in 4.0 mi WSW 12.7 mph 23.0 mph N/A   Overcast
12:12 PM 41.0 °F 33.1 °F 41.0 °F 100% 30.24 in 4.0 mi SW 15.0 mph 19.6 mph N/A   Overcast
12:32 PM 41.0 °F 32.5 °F 41.0 °F 100% 30.24 in 4.0 mi WSW 17.3 mph 21.9 mph N/A   Overcast
12:52 PM 41.0 °F 32.8 °F 41.0 °F 100% 30.23 in 4.0 mi WSW 16.1 mph 23.0 mph N/A   Overcast
1:12 PM 42.8 °F 34.0 °F 42.8 °F 100% 30.23 in 3.0 mi WSW 20.7 mph - N/A   Overcast
1:32 PM 42.8 °F 34.8 °F 42.8 °F 100% 30.22 in 3.0 mi WSW 17.3 mph 21.9 mph N/A   Overcast
2:13 PM 42.8 °F 35.1 °F 42.8 °F 100% 30.21 in 4.0 mi SW 16.1 mph 20.7 mph N/A   Overcast
2:33 PM 42.8 °F 34.5 °F 42.8 °F 100% 30.21 in 4.0 mi WSW 18.4 mph 25.3 mph N/A   Overcast
2:53 PM 42.8 °F 35.4 °F 42.8 °F 100% 30.20 in 5.0 mi WSW 15.0 mph 18.4 mph N/A   Overcast
3:13 PM 42.8 °F 35.4 °F 42.8 °F 100% 30.19 in 5.0 mi WSW 15.0 mph - N/A   Overcast
3:34 PM 42.8 °F 35.1 °F 42.8 °F 100% 30.18 in 5.0 mi SW 16.1 mph 24.2 mph N/A   Overcast
3:54 PM 42.8 °F 35.1 °F 42.8 °F 100% 30.19 in 4.0 mi WSW 16.1 mph 21.9 mph N/A   Overcast
4:14 PM 42.8 °F 35.8 °F 42.8 °F 100% 30.18 in 4.0 mi SW 13.8 mph - N/A   Overcast
4:34 PM 44.6 °F 38.8 °F 44.6 °F 100% 30.18 in 4.0 mi WSW 11.5 mph - N/A   Overcast
4:54 PM 42.8 °F 38.0 °F 42.8 °F 100% 30.18 in 4.0 mi SW 8.1 mph - N/A   Overcast
5:15 PM 42.8 °F 37.0 °F 42.8 °F 100% 30.19 in 5.0 mi SW 10.4 mph 18.4 mph N/A   Overcast
6:15 PM 42.8 °F 38.0 °F 42.8 °F 100% 30.19 in 5.0 mi SW 8.1 mph - N/A   Overcast
6:30 PM 42.8 °F 36.6 °F 42.8 °F 100% 30.19 in 7.0 mi SW 11.5 mph - N/A   Overcast
6:51 PM 42.8 °F 38.6 °F 42.8 °F 100% 30.19 in 5.0 mi SSW 6.9 mph - N/A   Scattered Clouds
7:11 PM 42.8 °F 38.6 °F 42.8 °F 100% 30.19 in 5.0 mi SW 6.9 mph - N/A   Clear
7:51 PM 42.8 °F 39.3 °F 42.8 °F 100% 30.17 in 5.0 mi SSW 5.8 mph - N/A   Clear
8:11 PM 41.0 °F 36.4 °F 41.0 °F 100% 30.17 in 4.0 mi SSW 6.9 mph - N/A   Clear
8:31 PM 42.8 °F 37.5 °F 42.8 °F 100% 30.16 in 5.0 mi SSW 9.2 mph - N/A   Clear
8:52 PM 42.8 °F 37.5 °F 42.8 °F 100% 30.16 in 5.0 mi SSW 9.2 mph 16.1 mph N/A   Clear
9:12 PM 42.8 °F 36.6 °F 42.8 °F 100% 30.15 in 5.0 mi SSW 11.5 mph - N/A   Clear
9:32 PM 42.8 °F 36.6 °F 42.8 °F 100% 30.15 in 5.0 mi SSW 11.5 mph - N/A   Clear
9:52 PM 42.8 °F 35.4 °F 42.8 °F 100% 30.15 in 7.0 mi SSW 15.0 mph - N/A   Clear
10:12 PM 42.8 °F 36.6 °F 42.8 °F 100% 30.14 in 7.0 mi SW 11.5 mph 17.3 mph N/A   Clear
10:32 PM 42.8 °F 36.6 °F 42.8 °F 100% 30.14 in 5.0 mi SSW 11.5 mph - N/A   Clear
10:53 PM 42.8 °F 36.2 °F 42.8 °F 100% 30.14 in 5.0 mi SSW 12.7 mph - N/A   Clear
11:33 PM 42.8 °F 37.0 °F 42.8 °F 100% 30.13 in 5.0 mi SW 10.4 mph - N/A   Clear
11:53 PM 42.8 °F 37.5 °F 42.8 °F 100% 30.13 in 5.0 mi SW 9.2 mph - N/A   Clear